VA3ZFM-10 Weather Reports


time (UTC)temp
C
wind
direction
speed
KPH
gust
KPH
rain 1hr
cm
rain 24hr
cm
rain mn
cm
humidity
%
barometer
mb
20260510095032 2 351 1.6 1.6 0.00 0.00 0.00 86 1007.3
20260510094526 2 51 0.0 1.6 0.00 0.00 0.00 86 1007.2
20260510094022 2 40 0.0 4.8 0.00 0.00 0.00 87 1007.1
20260510093518 2 84 1.6 4.8 0.00 0.00 0.00 87 1006.7
20260510093015 2 139 0.0 4.8 0.00 0.00 0.00 86 1006.9
20260510092512 3 92 0.0 6.4 0.00 0.00 0.00 86 1006.6
20260510092011 3 250 1.6 4.8 0.00 0.00 0.00 86 1006.5
20260510091509 3 214 4.8 9.7 0.00 0.00 0.00 86 1006.6
20260510091004 3 243 4.8 14.5 0.00 0.00 0.00 86 1006.5
20260510090502 3 215 0.0 12.9 0.00 0.00 0.00 86 1006.3
20260510085957 3 178 0.0 4.8 0.00 0.00 0.00 86 1006.5
20260510085453 3 162 0.0 3.2 0.00 0.00 0.00 86 1006.3
20260510084948 3 193 0.0 1.6 0.00 0.00 0.00 85 1006.5
20260510084446 3 194 4.8 6.4 0.00 0.00 0.00 85 1006.3
20260510083942 3 11 0.0 3.2 0.00 0.00 0.00 85 1006.2
20260510083439 3 67 0.0 3.2 0.00 0.00 0.00 84 1006.2
20260510082934 3 225 1.6 9.7 0.00 0.00 0.00 84 1006.0
20260510082432 3 187 0.0 4.8 0.00 0.00 0.00 83 1006.1
20260510081931 3 171 0.0 3.2 0.00 0.00 0.00 83 1006.1
20260510081427 3 196 3.2 4.8 0.00 0.00 0.00 82 1006.0
20260510080924 3 225 0.0 4.8 0.00 0.00 0.00 81 1006.0
20260510080422 4 201 1.6 1.6 0.00 0.00 0.00 81 1006.0
20260510075920 4 233 0.0 3.2 0.00 0.00 0.00 81 1005.8
20260510075418 4 275 3.2 9.7 0.00 0.00 0.00 80 1005.7
20260510074914 4 246 0.0 4.8 0.00 0.00 0.00 79 1006.0
20260510074411 4 181 0.0 11.3 0.00 0.00 0.00 79 1005.9
20260510073908 5 90 1.6 6.4 0.00 0.00 0.00 78 1005.8
20260510073403 5 162 3.2 4.8 0.00 0.00 0.00 78 1005.7
20260510072859 5 245 4.8 12.9 0.00 0.00 0.00 77 1005.6
20260510072356 5 170 0.0 9.7 0.00 0.00 0.00 76 1005.4
20260510071852 5 139 1.6 11.3 0.00 0.00 0.00 76 1005.3
20260510071349 5 212 1.6 3.2 0.00 0.00 0.00 76 1005.4
20260510070848 5 138 1.6 3.2 0.00 0.00 0.00 75 1005.4
20260510070344 5 343 0.0 4.8 0.00 0.00 0.00 75 1005.3
20260510065838 5 163 0.0 6.4 0.00 0.00 0.00 75 1005.2
20260510065336 5 146 1.6 6.4 0.00 0.00 0.00 74 1005.0
20260510064832 6 231 1.6 9.7 0.00 0.00 0.00 75 1005.0
20260510064331 6 207 0.0 0.0 0.00 0.00 0.00 75 1004.7
20260510063826 6 240 1.6 6.4 0.00 0.00 0.00 75 1004.7
20260510063323 6 114 1.6 3.2 0.00 0.00 0.00 77 1004.7
20260510062819 6 268 1.6 3.2 0.00 0.00 0.00 78 1004.8
20260510062315 6 180 0.0 3.2 0.00 0.00 0.00 78 1004.5
20260510061810 6 122 0.0 3.2 0.00 0.00 0.00 78 1004.5
20260510061308 6 217 0.0 3.2 0.00 0.00 0.00 78 1004.7
20260510060804 6 65 1.6 4.8 0.00 0.00 0.00 79 1004.5
20260510060301 6 289 0.0 3.2 0.00 0.00 0.00 80 1004.7
20260510055758 6 119 1.6 3.2 0.00 0.00 0.00 81 1004.5
20260510055256 6 160 0.0 3.2 0.00 0.00 0.00 82 1004.6
20260510054755 6 191 0.0 3.2 0.00 0.00 0.00 81 1004.7
20260510054252 6 106 0.0 0.0 0.00 0.00 0.00 82 1004.4
20260510053752 6 85 0.0 1.6 0.00 0.00 0.00 82 1004.5
20260510053248 6 204 1.6 4.8 0.00 0.00 0.00 82 1004.4
20260510052744 7 159 0.0 1.6 0.00 0.00 0.00 81 1004.5
20260510052240 7 202 0.0 3.2 0.00 0.00 0.00 81 1004.5
20260510051736 7 213 1.6 3.2 0.00 0.00 0.00 81 1004.3
20260510051233 7 154 0.0 1.6 0.00 0.00 0.00 81 1004.3
20260510050729 7 184 0.0 4.8 0.00 0.00 0.00 81 1004.4
20260510050227 7 149 1.6 1.6 0.00 0.00 0.00 81 1004.4
20260510045724 7 207 1.6 3.2 0.00 0.00 0.00 80 1004.0
20260510045220 7 162 3.2 3.2 0.00 0.00 0.00 81 1003.9
20260510044716 7 152 0.0 1.6 0.00 0.00 0.00 81 1003.9
20260510044215 7 231 0.0 3.2 0.00 0.00 0.00 80 1004.2
20260510043709 7 191 1.6 4.8 0.00 0.00 0.00 80 1003.8
20260510043207 7 245 0.0 6.4 0.00 0.00 0.00 81 1003.9
20260510042704 8 218 1.6 16.1 0.00 0.00 0.00 80 1003.9
20260510042200 8 215 4.8 6.4 0.00 0.00 0.00 82 1003.8
20260510041657 8 191 1.6 4.8 0.00 0.00 0.00 82 1003.7
20260510041154 8 92 0.0 1.6 0.00 0.00 0.00 84 1003.6
20260510040651 8 102 0.0 1.6 0.00 0.00 0.00 84 1003.4
20260510040148 8 235 0.0 0.0 0.00 0.00 0.00 83 1003.4
20260510035643 8 226 1.6 1.6 0.00 0.00 0.00 83 1003.3
20260510035138 8 185 1.6 4.8 0.00 0.00 0.00 82 1003.3
20260510034636 8 134 1.6 3.2 0.00 0.00 0.00 82 1003.3
20260510034133 8 118 3.2 4.8 0.00 0.00 0.00 82 1003.3
20260510033629 9 226 0.0 4.8 0.00 0.00 0.00 82 1003.7
20260510033127 9 195 3.2 6.4 0.00 0.00 0.00 81 1003.7
20260510032623 9 138 0.0 6.4 0.00 0.00 0.00 81 1003.4
20260510032118 9 194 1.6 3.2 0.00 0.00 0.00 82 1003.4
20260510031613 9 145 3.2 3.2 0.00 0.00 0.00 82 1003.1
20260510031110 9 204 0.0 3.2 0.00 0.00 0.00 83 1003.0
20260510030605 10 135 1.6 4.8 0.00 0.00 0.00 82 1003.0
20260510030103 10 188 0.0 4.8 0.00 0.00 0.00 83 1003.1
20260510025600 10 180 0.0 3.2 0.00 0.00 0.00 83 1002.9
20260510025057 10 192 0.0 4.8 0.00 0.00 0.00 83 1002.7
20260510024554 10 208 1.6 3.2 0.00 0.00 0.00 83 1002.5
20260510024050 10 231 0.0 4.8 0.00 0.00 0.00 84 1002.8
20260510023546 10 207 0.0 3.2 0.00 0.00 0.00 84 1002.7
20260510023045 10 118 1.6 3.2 0.00 0.00 0.00 85 1002.5
20260510022544 10 167 1.6 4.8 0.00 0.00 0.00 85 1002.7
20260510022044 10 180 1.6 6.4 0.00 0.00 0.00 85 1002.7
20260510021540 10 177 0.0 11.3 0.00 0.00 0.00 84 1002.6
20260510021039 10 168 4.8 9.7 0.00 0.00 0.00 84 1002.5
20260510020538 10 161 4.8 9.7 0.00 0.00 0.00 85 1003.0
20260510020033 11 189 0.0 4.8 0.00 0.00 0.00 85 1002.8
20260510015530 11 142 1.6 9.7 0.00 0.00 0.00 85 1002.7
20260510015025 11 120 0.0 3.2 0.00 0.00 0.00 84 1002.5
20260510014522 11 149 0.0 1.6 0.00 0.00 0.00 84 1002.7
20260510014020 11 206 1.6 6.4 0.00 0.00 0.00 83 1002.5
20260510013515 11 150 1.6 3.2 0.00 0.00 0.00 83 1002.3
20260510013011 11 112 3.2 4.8 0.00 0.00 0.00 82 1002.4
20260510012510 11 209 1.6 6.4 0.00 0.00 0.00 82 1002.4
20260510012007 11 199 1.6 4.8 0.00 0.00 0.00 81 1002.1
20260510011501 11 188 8.0 11.3 0.00 0.00 0.00 81 1002.0
20260510010957 11 142 3.2 6.4 0.00 0.00 0.00 80 1001.9
20260510010454 11 165 1.6 12.9 0.00 0.00 0.00 79 1002.0
20260510005951 11 232 6.4 14.5 0.00 0.00 0.00 78 1001.9
20260510005447 11 151 6.4 20.9 0.00 0.00 0.00 77 1001.5
20260510004945 11 174 3.2 4.8 0.00 0.00 0.00 77 1001.6
20260510004442 11 200 3.2 12.9 0.00 0.00 0.00 76 1001.4
20260510003940 11 161 3.2 14.5 0.00 0.00 0.00 76 1001.3
20260510003437 11 153 1.6 11.3 0.00 0.00 0.00 76 1001.3
20260510002936 11 159 3.2 6.4 0.00 0.00 0.00 77 1001.5
20260510002433 12 197 6.4 9.7 0.00 0.00 0.00 76 1001.0
20260510001929 12 226 3.2 17.7 0.00 0.00 0.00 75 1000.9
20260510001427 12 171 9.7 14.5 0.00 0.00 0.00 76 1001.0
20260510000925 12 210 6.4 17.7 0.00 0.00 0.00 72 1000.9
20260510000421 12 156 4.8 11.3 0.00 0.00 0.00 72 1001.0
20260509235917 12 213 1.6 11.3 0.00 0.00 0.00 72 1001.0
20260509235414 12 152 1.6 16.1 0.00 0.00 0.00 70 1000.9
20260509234910 12 219 1.6 4.8 0.00 0.00 0.00 69 1000.9
20260509234408 12 182 1.6 16.1 0.00 0.00 0.00 68 1001.1
20260509233906 12 117 1.6 3.2 0.00 0.00 0.00 67 1001.1
20260509233403 12 233 6.4 6.4 0.00 0.00 0.00 65 1001.1
20260509232858 13 162 4.8 12.9 0.00 0.00 0.00 65 1001.1
20260509232356 13 144 4.8 9.7 0.00 0.00 0.00 64 1001.1
20260509231852 13 183 1.6 16.1 0.00 0.00 0.00 63 1000.9
20260509231349 13 188 3.2 4.8 0.00 0.00 0.00 63 1001.1
20260509230847 13 189 1.6 6.4 0.00 0.00 0.00 64 1001.1
20260509230344 13 164 6.4 11.3 0.00 0.00 0.00 64 1001.4
20260509225839 13 194 1.6 9.7 0.00 0.00 0.00 64 1001.3
20260509225336 13 201 8.0 14.5 0.00 0.00 0.00 65 1001.4
20260509224832 13 153 9.7 12.9 0.00 0.00 0.00 65 1001.6
20260509224328 13 143 3.2 11.3 0.00 0.00 0.00 62 1001.5
20260509223825 13 158 3.2 12.9 0.00 0.00 0.00 59 1001.6
20260509223321 13 195 3.2 12.9 0.00 0.00 0.00 59 1001.7
20260509222819 13 194 6.4 14.5 0.00 0.00 0.00 59 1001.7
20260509222314 13 192 3.2 6.4 0.00 0.00 0.00 60 1001.9
20260509221810 13 179 1.6 9.7 0.00 0.00 0.00 58 1001.6
20260509221308 13 150 6.4 20.9 0.00 0.00 0.00 57 1001.6
20260509220802 13 164 3.2 6.4 0.00 0.00 0.00 58 1001.4
20260509220259 14 218 6.4 17.7 0.00 0.00 0.00 58 1001.5
20260509215754 14 175 4.8 9.7 0.00 0.00 0.00 57 1001.8
20260509215251 14 173 1.6 4.8 0.00 0.00 0.00 57 1001.7
20260509214748 14 176 1.6 9.7 0.00 0.00 0.00 56 1001.7
20260509214245 14 152 3.2 16.1 0.00 0.00 0.00 56 1001.8
20260509213742 14 160 4.8 6.4 0.00 0.00 0.00 55 1001.6
20260509213237 14 150 6.4 17.7 0.00 0.00 0.00 54 1001.6
20260509212735 14 181 12.9 22.5 0.00 0.00 0.00 53 1001.5
20260509212232 14 161 3.2 11.3 0.00 0.00 0.00 52 1001.8
20260509211728 15 177 9.7 14.5 0.00 0.00 0.00 51 1001.9
20260509211225 15 153 9.7 16.1 0.00 0.00 0.00 49 1001.9
20260509210721 15 206 3.2 11.3 0.00 0.00 0.00 49 1001.5
20260509210219 15 168 4.8 11.3 0.00 0.00 0.00 47 1002.0
20260509205718 15 131 4.8 11.3 0.00 0.00 0.00 47 1001.6
20260509205218 15 191 4.8 12.9 0.00 0.00 0.00 46 1001.9
20260509204714 15 127 3.2 14.5 0.00 0.00 0.00 45 1001.9
20260509204211 15 165 3.2 16.1 0.00 0.00 0.00 45 1002.0
20260509203707 15 181 6.4 17.7 0.00 0.00 0.00 44 1002.2
20260509203205 15 196 8.0 12.9 0.00 0.00 0.00 43 1002.0
20260509202701 15 172 4.8 4.8 0.00 0.00 0.00 43 1002.3
20260509202155 16 173 4.8 24.1 0.00 0.00 0.00 42 1002.1
20260509201651 16 180 8.0 12.9 0.00 0.00 0.00 40 1001.9
20260509201148 16 215 3.2 14.5 0.00 0.00 0.00 38 1001.6
20260509200644 16 189 3.2 6.4 0.00 0.00 0.00 39 1001.8
20260509200140 15 124 3.2 14.5 0.00 0.00 0.00 39 1002.0
20260509195636 16 178 9.7 16.1 0.00 0.00 0.00 38 1002.1
20260509195131 16 156 11.3 24.1 0.00 0.00 0.00 36 1002.1
20260509194631 16 190 12.9 22.5 0.00 0.00 0.00 35 1002.0
20260509194128 16 141 3.2 24.1 0.00 0.00 0.00 36 1002.1
20260509193624 16 104 8.0 11.3 0.00 0.00 0.00 36 1002.3
20260509193120 16 206 4.8 14.5 0.00 0.00 0.00 36 1002.2
20260509192617 16 110 4.8 20.9 0.00 0.00 0.00 35 1002.3
20260509192112 16 223 11.3 14.5 0.00 0.00 0.00 35 1002.5
20260509191606 16 197 9.7 20.9 0.00 0.00 0.00 36 1002.5
20260509191103 15 178 9.7 20.9 0.00 0.00 0.00 36 1002.6
20260509190600 16 127 3.2 17.7 0.00 0.00 0.00 35 1002.6
20260509190057 16 151 9.7 16.1 0.00 0.00 0.00 35 1002.5
20260509185555 16 156 6.4 11.3 0.00 0.00 0.00 34 1002.7
20260509185050 16 197 0.0 11.3 0.00 0.00 0.00 34 1002.7
20260509184549 16 178 16.1 20.9 0.00 0.00 0.00 34 1002.8
20260509184045 16 160 6.4 16.1 0.00 0.00 0.00 34 1002.8
20260509183540 16 229 1.6 4.8 0.00 0.00 0.00 32 1002.7
20260509183036 16 153 6.4 22.5 0.00 0.00 0.00 32 1002.8
20260509182533 17 97 9.7 12.9 0.00 0.00 0.00 31 1002.8
20260509182030 16 238 3.2 11.3 0.00 0.00 0.00 31 1002.8
20260509181528 16 148 3.2 17.7 0.00 0.00 0.00 32 1002.8
20260509181026 17 212 9.7 25.7 0.00 0.00 0.00 30 1002.8
20260509180521 16 195 6.4 14.5 0.00 0.00 0.00 31 1003.0
20260509180019 16 139 6.4 11.3 0.00 0.00 0.00 31 1003.2
20260509175513 17 186 3.2 12.9 0.00 0.00 0.00 30 1003.3
20260509175011 16 164 6.4 22.5 0.00 0.00 0.00 29 1003.3
20260509174508 16 100 4.8 22.5 0.00 0.00 0.00 30 1003.3
20260509174002 15 169 8.0 17.7 0.00 0.00 0.00 30 1003.7
20260509173457 16 139 11.3 14.5 0.00 0.00 0.00 29 1003.6
20260509172953 16 185 6.4 12.9 0.00 0.00 0.00 30 1003.7
20260509172451 16 186 12.9 20.9 0.00 0.00 0.00 29 1003.9
20260509171946 16 139 4.8 16.1 0.00 0.00 0.00 32 1003.8
20260509171442 15 98 12.9 20.9 0.00 0.00 0.00 31 1003.7
20260509170939 16 158 3.2 9.7 0.00 0.00 0.00 32 1004.0
20260509170434 16 194 3.2 9.7 0.00 0.00 0.00 31 1004.2
20260509165930 16 102 4.8 9.7 0.00 0.00 0.00 31 1004.3
20260509165424 16 192 3.2 11.3 0.00 0.00 0.00 32 1004.4
20260509164920 16 170 9.7 16.1 0.00 0.00 0.00 30 1004.4
20260509164416 16 180 3.2 11.3 0.00 0.00 0.00 31 1004.4
20260509163912 16 185 4.8 11.3 0.00 0.00 0.00 31 1004.7
20260509163410 15 150 4.8 11.3 0.00 0.00 0.00 32 1004.6
20260509162909 16 162 11.3 20.9 0.00 0.00 0.00 31 1004.8
20260509162407 15 170 3.2 6.4 0.00 0.00 0.00 32 1004.7
20260509161903 15 158 8.0 24.1 0.00 0.00 0.00 32 1004.7
20260509161400 15 145 4.8 11.3 0.00 0.00 0.00 32 1004.8
20260509160855 16 168 6.4 9.7 0.00 0.00 0.00 32 1004.9
20260509160351 16 172 6.4 12.9 0.00 0.00 0.00 32 1005.0
20260509155846 15 200 1.6 9.7 0.00 0.00 0.00 32 1005.0
20260509155343 15 198 8.0 17.7 0.00 0.00 0.00 31 1005.2
20260509154840 15 133 9.7 12.9 0.00 0.00 0.00 31 1005.3
20260509154336 14 230 8.0 16.1 0.00 0.00 0.00 32 1005.5
20260509153833 15 160 11.3 17.7 0.00 0.00 0.00 32 1005.6
20260509153330 15 184 4.8 9.7 0.00 0.00 0.00 33 1005.4
20260509152827 13 172 9.7 14.5 0.00 0.00 0.00 34 1005.6
20260509152322 14 151 11.3 25.7 0.00 0.00 0.00 32 1006.0
20260509151821 15 173 11.3 17.7 0.00 0.00 0.00 34 1005.9
20260509151316 14 174 9.7 27.4 0.00 0.00 0.00 33 1006.2
20260509150815 15 172 4.8 6.4 0.00 0.00 0.00 33 1006.1
20260509150312 14 233 6.4 11.3 0.00 0.00 0.00 34 1006.2
20260509145809 13 193 8.0 11.3 0.00 0.00 0.00 34 1006.4
20260509145309 13 160 1.6 11.3 0.00 0.00 0.00 35 1006.2
20260509144806 14 196 6.4 6.4 0.00 0.00 0.00 34 1006.1
20260509144303 14 208 4.8 11.3 0.00 0.00 0.00 35 1005.9
20260509143800 13 142 4.8 12.9 0.00 0.00 0.00 36 1006.4
20260509143257 13 67 0.0 9.7 0.00 0.00 0.00 36 1006.4
20260509142753 13 144 3.2 11.3 0.00 0.00 0.00 36 1006.3
20260509142249 13 163 4.8 12.9 0.00 0.00 0.00 38 1006.4
20260509141745 13 177 11.3 12.9 0.00 0.00 0.00 37 1006.5
20260509141243 12 165 1.6 9.7 0.00 0.00 0.00 41 1006.6
20260509140739 12 169 1.6 11.3 0.00 0.00 0.00 41 1006.6
20260509140236 12 189 9.7 14.5 0.00 0.00 0.00 40 1006.7
20260509135734 12 150 4.8 11.3 0.00 0.00 0.00 40 1006.5
20260509135232 11 188 8.0 11.3 0.00 0.00 0.00 43 1006.5
20260509134728 12 182 8.0 14.5 0.00 0.00 0.00 42 1006.5
20260509134226 11 134 9.7 16.1 0.00 0.00 0.00 43 1006.5
20260509133723 11 91 3.2 12.9 0.00 0.00 0.00 43 1006.9
20260509133219 12 213 1.6 3.2 0.00 0.00 0.00 43 1006.8
20260509132718 11 143 0.0 3.2 0.00 0.00 0.00 44 1006.7
20260509132216 11 176 4.8 9.7 0.00 0.00 0.00 42 1006.8
20260509131712 11 177 4.8 6.4 0.00 0.00 0.00 43 1007.2
20260509131209 10 150 9.7 11.3 0.00 0.00 0.00 44 1006.8
20260509130705 10 202 6.4 9.7 0.00 0.00 0.00 44 1007.2
20260509130201 11 164 8.0 9.7 0.00 0.00 0.00 43 1006.9
20260509125658 10 170 3.2 4.8 0.00 0.00 0.00 44 1007.2
20260509125154 10 139 6.4 11.3 0.00 0.00 0.00 45 1007.3
20260509124651 10 208 1.6 4.8 0.00 0.00 0.00 47 1007.2
20260509124148 10 186 3.2 4.8 0.00 0.00 0.00 48 1006.8
20260509123646 9 179 1.6 6.4 0.00 0.00 0.00 51 1007.1
20260509123143 9 171 9.7 11.3 0.00 0.00 0.00 51 1007.2
20260509122638 9 112 3.2 4.8 0.00 0.00 0.00 52 1007.2
20260509122136 8 181 4.8 12.9 0.00 0.00 0.00 54 1007.4
20260509121632 8 171 3.2 9.7 0.00 0.00 0.00 55 1007.5
20260509121130 8 167 0.0 3.2 0.00 0.00 0.00 57 1007.4
20260509120628 8 166 1.6 9.7 0.00 0.00 0.00 58 1007.4
20260509120126 8 151 3.2 9.7 0.00 0.00 0.00 58 1007.7
20260509115623 7 194 4.8 6.4 0.00 0.00 0.00 59 1007.5
20260509115121 7 156 0.0 1.6 0.00 0.00 0.00 61 1007.6
20260509114618 6 179 0.0 1.6 0.00 0.00 0.00 62 1007.6
20260509114117 6 134 0.0 3.2 0.00 0.00 0.00 65 1007.4
20260509113615 5 89 0.0 1.6 0.00 0.00 0.00 66 1007.5
20260509113112 5 80 0.0 0.0 0.00 0.00 0.00 68 1007.7
20260509112608 5 90 0.0 0.0 0.00 0.00 0.00 67 1007.7
20260509112106 6 76 0.0 0.0 0.00 0.00 0.00 66 1007.7
20260509111603 6 115 0.0 0.0 0.00 0.00 0.00 64 1007.6
20260509111100 5 99 0.0 1.6 0.00 0.00 0.00 65 1007.6
20260509110557 5 119 0.0 0.0 0.00 0.00 0.00 66 1007.7
20260509110054 5 116 0.0 0.0 0.00 0.00 0.00 66 1007.5
20260509105552 4 119 0.0 0.0 0.00 0.00 0.00 67 1007.5
20260509105049 4 132 0.0 1.6 0.00 0.00 0.00 67 1007.5
20260509104546 4 158 0.0 1.6 0.00 0.00 0.00 68 1007.4
20260509104043 3 161 0.0 1.6 0.00 0.00 0.00 69 1007.3
20260509103541 3 150 0.0 1.6 0.00 0.00 0.00 69 1007.4
20260509103039 3 140 0.0 0.0 0.00 0.00 0.00 70 1007.2
20260509102536 3 156 0.0 1.6 0.00 0.00 0.00 70 1007.6
20260509102033 3 157 0.0 1.6 0.00 0.00 0.00 70 1007.6
20260509101529 3 167 0.0 1.6 0.00 0.00 0.00 70 1007.4
20260509101026 3 153 0.0 1.6 0.00 0.00 0.00 70 1007.2
20260509100523 3 127 0.0 0.0 0.00 0.00 0.00 71 1007.3
20260509100020 3 156 0.0 0.0 0.00 0.00 0.00 71 1007.4
20260509095517 3 157 0.0 1.6 0.00 0.00 0.00 70 1007.2